KD8UYA Weather Reports


Display with metric or nautical units.
time (UTC)temp
F
wind
direction
speed
MPH
gust
MPH
rain 1hr
in
rain 24hr
in
rain mn
in
humidity
%
barometer
mb
20260505124526 60 171 3.0 12.0 0.00 0.00 0.00 81 1003.7
20260505123025 60 268 2.0 10.0 0.00 0.00 0.00 81 1003.4
20260505121523 60 269 4.0 15.0 0.00 0.00 0.00 80 1003.2
20260505120020 60 254 7.0 16.0 0.00 0.00 0.00 79 1002.7
20260505114519 59 275 6.0 12.0 0.00 0.00 0.00 80 1002.3
20260505113020 59 239 3.0 19.0 0.00 0.00 0.00 82 1002.2
20260505111513 60 222 4.0 13.0 0.00 0.00 0.00 80 1002.5
20260505101505 63 273 4.0 14.0 0.00 0.00 0.00 72 1002.1
20260505094557 64 281 6.0 17.0 0.00 0.00 0.00 69 1001.7
20260505093055 65 214 6.0 18.0 0.00 0.00 0.00 68 1001.3
20260505091554 65 264 5.0 17.0 0.00 0.00 0.00 67 1001.2
20260505090104 65 196 6.0 15.0 0.00 0.00 0.00 67 1000.9
20260505084554 65 284 7.0 14.0 0.00 0.00 0.00 67 1001.1
20260505083057 65 273 7.0 19.0 0.00 0.00 0.00 67 1000.9
20260505081549 64 216 3.0 9.0 0.00 0.00 0.00 70 1001.2
20260505080053 64 250 5.0 9.0 0.00 0.00 0.00 71 1000.9
20260505074546 64 228 4.0 9.0 0.00 0.00 0.00 73 1000.8
20260505073045 64 181 6.0 17.0 0.00 0.00 0.00 72 1000.8
20260505071544 65 224 6.0 16.0 0.00 0.00 0.00 70 1000.7
20260505070045 65 266 4.0 12.0 0.00 0.00 0.00 70 1000.7
20260505064541 65 209 3.0 11.0 0.00 0.00 0.00 70 1000.8
20260505063041 64 262 2.0 7.0 0.00 0.00 0.00 71 1001.0
20260505061542 64 239 3.0 10.0 0.00 0.00 0.00 71 1001.1
20260505060036 64 226 2.0 10.0 0.00 0.00 0.00 71 1001.1
20260505054538 64 260 4.0 15.0 0.00 0.00 0.00 72 1001.4
20260505053041 64 292 3.0 10.0 0.00 0.00 0.00 72 1001.6
20260505051534 64 234 3.0 10.0 0.00 0.00 0.00 72 1001.8
20260505041525 64 251 3.0 10.0 0.00 0.00 0.00 72 1002.1
20260505040023 64 210 4.0 9.0 0.00 0.00 0.00 72 1002.1
20260505034522 64 94 3.0 9.0 0.00 0.00 0.00 72 1002.1
20260505033022 64 163 1.0 12.0 0.00 0.00 0.00 72 1002.3
20260505031520 64 275 3.0 7.0 0.00 0.00 0.00 71 1002.5
20260505030026 64 169 3.0 11.0 0.00 0.00 0.00 71 1002.5
20260505024522 64 202 2.0 11.0 0.00 0.00 0.00 70 1002.4
20260505023018 65 138 2.0 10.0 0.00 0.00 0.00 68 1002.4
20260505021518 65 210 4.0 13.0 0.00 0.00 0.00 68 1002.4
20260505020018 65 282 2.0 10.0 0.00 0.00 0.00 66 1002.5
20260505014518 66 193 2.0 14.0 0.00 0.00 0.00 65 1002.5
20260505013016 66 179 2.0 8.0 0.00 0.00 0.00 63 1002.4
20260505011519 67 269 5.0 10.0 0.00 0.00 0.00 62 1002.4
20260505010015 67 259 2.0 9.0 0.00 0.00 0.00 61 1002.3
20260505004529 68 296 3.0 9.0 0.00 0.00 0.00 61 1002.0
20260505003013 68 305 3.0 7.0 0.00 0.00 0.00 60 1001.9
20260505001513 68 261 3.0 9.0 0.00 0.00 0.00 60 1001.7
20260505000017 69 273 3.0 11.0 0.00 0.00 0.00 59 1001.5
20260504234518 70 251 3.0 9.0 0.00 0.00 0.00 58 1001.2
20260504233010 71 201 7.0 18.0 0.00 0.00 0.00 57 1001.2
20260504231524 71 263 4.0 20.0 0.00 0.00 0.00 57 1001.2
20260504230011 71 219 8.0 16.0 0.00 0.00 0.00 57 1001.3
20260504224505 70 275 4.0 15.0 0.00 0.00 0.00 60 1001.5
20260504223004 71 210 5.0 17.0 0.00 0.00 0.00 59 1001.6
20260504221504 70 305 4.0 12.0 0.00 0.00 0.00 61 1001.8
20260504220002 68 304 3.0 11.0 0.00 0.00 0.00 65 1001.8
20260504214501 70 235 6.0 16.0 0.00 0.00 0.00 61 1002.2
20260504213105 70 252 5.0 14.0 0.00 0.00 0.00 59 1001.9
20260504211605 72 260 4.0 12.0 0.00 0.00 0.00 56 1002.0
20260504204635 70 255 5.0 14.0 0.00 0.00 0.00 59 1002.5
20260504203053 71 254 5.0 15.0 0.00 0.00 0.00 57 1002.4
20260504201551 70 274 8.0 24.0 0.00 0.00 0.00 56 1002.8
20260504200055 71 212 7.0 15.0 0.00 0.00 0.00 54 1002.7
20260504194552 71 203 5.0 12.0 0.00 0.00 0.00 55 1002.9
20260504193047 70 252 3.0 13.0 0.00 0.00 0.00 56 1003.1
20260504191544 70 278 5.0 13.0 0.00 0.00 0.00 55 1003.4
20260504190050 70 234 5.0 14.0 0.00 0.00 0.00 56 1003.6
20260504184539 70 196 7.0 20.0 0.00 0.00 0.00 56 1003.9
20260504183036 69 317 5.0 13.0 0.00 0.00 0.00 58 1003.9
20260504181533 68 226 3.0 12.0 0.00 0.00 0.00 58 1004.1
20260504180031 67 151 9.0 17.0 0.00 0.00 0.00 57 1004.2
20260504174530 68 234 4.0 14.0 0.00 0.00 0.00 59 1004.4
20260504173028 67 305 4.0 10.0 0.00 0.00 0.00 58 1004.6
20260504171537 67 197 7.0 16.0 0.00 0.00 0.00 58 1004.6
20260504150105 61 235 4.0 11.0 0.00 0.00 0.00 63 1006.1